Weather History for Wilmington, NC

Change the Weather History Date:

Wednesday, April 10, 2013

  Actual Average Record
Temperature  
Mean Temperature 72 °F 62 °F  
Max Temperature 83 °F 73 °F 89 °F (2001)
Min Temperature 61 °F 50 °F 31 °F (1972)
Degree Days  
Heating Degree Days 0 5  
Month to date heating degree days 76 61  
Since 1 July heating degree days 2353 2313  
Cooling Degree Days 7 2  
Month to date cooling degree days 11 14  
Year to date cooling degree days 25 35  
Growing Degree Days 22 (Base 50)    
Moisture  
Dew Point 60 °F    
Average Humidity 73    
Maximum Humidity 100    
Minimum Humidity 45    
Precipitation  
Precipitation 0.00 in 0.09 in 1.43 in (1993)
Month to date precipitation 1.00 0.99  
Year to date precipitation 10.71 12.58  
Snow  
Snow 0.00 in 0.00 in - ()
Month to date snowfall 0.0 0.0  
Since 1 July snowfall T 1.7  
Snow Depth 0.00 in    
Sea Level Pressure  
Sea Level Pressure 30.10 in    
Wind  
Wind Speed 10 mph (SW)    
Max Wind Speed 18 mph    
Max Gust Speed 25 mph    
Visibility 10 miles    
Events      
T = Trace of Precipitation, MM = Missing Value Source: NWS Daily Summary

Daily Weather History Graph

Daily Weather History Graph

Search for Another Location

Airport:

Trip Planner

Search our weather history database for the weather conditions in past years. The results will help you decide how hot, cold, wet, or windy it might be!

Date:

Astronomy

Apr. 10, 2013 Rise Set
Actual Time 6:46 AM EDT 7:39 PM EDT
Civil Twilight 6:20 AM EDT 8:05 PM EDT
Nautical Twilight 5:50 AM EDT 8:35 PM EDT
Astronomical Twilight 5:19 AM EDT 9:06 PM EDT
Moon 6:42 AM EDT (4/10) 8:10 PM EDT (4/10)
Length of Visible Light 13h 44m
Length of Day
12h 53m
Waxing Crescent, 0% of the Moon is Illuminated
Apr 10
Waxing Crescent
Apr 18
First Quarter
Apr 25
Full
May 2
Last Quarter
May 9
New

Hourly Weather History & Observations

Time (EDT) Temp. Heat Index Dew Point Humidity Pressure Visibility Wind Dir Wind Speed Gust Speed Precip Events Conditions
12:53 AM 66.0 °F - 61.0 °F 84% 30.14 in 10.0 mi SSW 8.1 mph - N/A   Clear
1:53 AM 66.0 °F - 62.1 °F 87% 30.12 in 10.0 mi SSW 8.1 mph - N/A   Clear
2:53 AM 64.9 °F - 62.1 °F 90% 30.10 in 10.0 mi SSW 8.1 mph - N/A   Clear
3:53 AM 64.0 °F - 62.1 °F 93% 30.11 in 10.0 mi SSW 6.9 mph - N/A   Clear
4:53 AM 63.0 °F - 61.0 °F 93% 30.12 in 10.0 mi SW 4.6 mph - N/A   Clear
5:53 AM 63.0 °F - 61.0 °F 93% 30.13 in 10.0 mi SW 4.6 mph - N/A   Clear
6:53 AM 61.0 °F - 60.1 °F 97% 30.14 in 8.0 mi Calm Calm - N/A   Clear
7:53 AM 64.0 °F - 61.0 °F 90% 30.15 in 10.0 mi SW 3.5 mph - N/A   Clear
8:53 AM 68.0 °F - 62.1 °F 81% 30.16 in 10.0 mi WSW 9.2 mph - N/A   Clear
9:53 AM 73.0 °F - 61.0 °F 66% 30.17 in 10.0 mi WSW 13.8 mph - N/A   Clear
10:53 AM 77.0 °F - 59.0 °F 54% 30.16 in 10.0 mi West 13.8 mph - N/A   Clear
11:53 AM 79.0 °F - 59.0 °F 50% 30.15 in 10.0 mi SW 11.5 mph 16.1 mph N/A   Clear
12:53 PM 81.0 °F 81.3 °F 59.0 °F 47% 30.12 in 10.0 mi SW 10.4 mph - N/A   Clear
1:53 PM 81.0 °F 81.3 °F 59.0 °F 47% 30.11 in 10.0 mi South 15.0 mph 23.0 mph N/A   Clear
2:53 PM 81.0 °F 81.1 °F 57.9 °F 45% 30.10 in 10.0 mi South 19.6 mph 23.0 mph N/A   Clear
3:53 PM 80.1 °F 80.6 °F 57.9 °F 47% 30.07 in 10.0 mi SSW 13.8 mph 21.9 mph N/A   Clear
4:53 PM 79.0 °F - 57.0 °F 47% 30.06 in 10.0 mi South 12.7 mph 21.9 mph N/A   Clear
5:53 PM 78.1 °F - 55.0 °F 45% 30.05 in 10.0 mi SW 13.8 mph - N/A   Clear
6:53 PM 73.9 °F - 55.9 °F 53% 30.05 in 10.0 mi SSW 15.0 mph 20.7 mph N/A   Clear
7:53 PM 71.1 °F - 57.0 °F 61% 30.04 in 10.0 mi SSW 8.1 mph - N/A   Clear
8:53 PM 69.1 °F - 59.0 °F 70% 30.04 in 10.0 mi SSW 11.5 mph - N/A   Clear
9:53 PM 68.0 °F - 60.1 °F 76% 30.05 in 10.0 mi SSW 12.7 mph - N/A   Clear
10:53 PM 66.9 °F - 60.1 °F 79% 30.05 in 10.0 mi SSW 9.2 mph - N/A   Clear
11:53 PM 66.0 °F - 60.1 °F 81% 30.04 in 10.0 mi SSW 9.2 mph - N/A   Clear